Rome, GA

10:31 PM EST on November 17, 2019 (GMT -0500)
Russell

Weather History for KRMG - September, 2019

Change the Weather History Date:

Sunday, September 15, 2019

  Actual Average Record
Temperature  
Mean Temperature 82 °F 72 °F  
Max Temperature 96 °F 84 °F 98 °F (2016)
Min Temperature 68 °F 61 °F 50 °F (2015)
Degree Days  
Heating Degree Days 0 0  
Month to date heating degree days 0 0  
Since 1 July heating degree days 0 0  
Cooling Degree Days 17 8  
Month to date cooling degree days 246 143  
Year to date cooling degree days 2005 1509  
Growing Degree Days 32 (Base 50)    
Moisture  
Dew Point 67 °F    
Average Humidity 68    
Maximum Humidity 93    
Minimum Humidity 34    
Precipitation  
Precipitation 0.00 in 0.11 in 0.04 in (2002)
Month to date precipitation T 1.53  
Year to date precipitation 42.45 36.95  
Sea Level Pressure  
Sea Level Pressure 30.09 in    
Wind  
Wind Speed 2 mph ()    
Max Wind Speed 12 mph    
Max Gust Speed 17 mph    
Visibility 9.4 miles    
Events      
T = Trace of Precipitation, MM = Missing Value Source: Averaged Metar Reports

Daily Weather History Graph

Daily Weather History Graph

Search for Another Location

Airport or City:

Astronomy

Sep. 15, 2019 Rise Set
Actual Time 7:23 AM EDT 7:47 PM EDT
Civil Twilight 6:58 AM EDT 8:12 PM EDT
Nautical Twilight 6:28 AM EDT 8:42 PM EDT
Astronomical Twilight 5:58 AM EDT 9:12 PM EDT
Moon 8:57 PM EDT (9/15) 8:32 AM EDT (9/15)
Length of Visible Light 13h 14m
Length of Day
12h 24m
Full, 98% of the Moon is Illuminated
Sep 15
Full
Sep 21
Last Quarter
Sep 28
New
Oct 5
First Quarter
Oct 13
Full

Hourly Weather History & Observations

Time (EDT) Temp. Heat Index Dew Point Humidity Pressure Visibility Wind Dir Wind Speed Gust Speed Precip Events Conditions
12:53 AM 73.0 °F - 70.0 °F 90% 30.15 in 9.0 mi Calm Calm - N/A   Clear
1:53 AM 72.0 °F - 69.1 °F 91% 30.14 in 10.0 mi NW 3.5 mph - N/A   Clear
2:53 AM 71.1 °F - 68.0 °F 90% 30.14 in 8.0 mi Calm Calm - N/A   Clear
3:53 AM 70.0 °F - 66.9 °F 90% 30.12 in 8.0 mi Calm Calm - N/A   Clear
4:53 AM 69.1 °F - 66.0 °F 90% 30.12 in 8.0 mi Calm Calm - N/A   Clear
5:53 AM 69.1 °F - 66.9 °F 93% 30.13 in 9.0 mi Calm Calm - N/A   Clear
6:53 AM 69.1 °F - 66.9 °F 93% 30.14 in 6.0 mi Calm Calm - N/A   Clear
7:53 AM 69.1 °F - 66.0 °F 90% 30.14 in 7.0 mi NE 3.5 mph - N/A   Clear
8:53 AM 73.0 °F - 68.0 °F 84% 30.15 in 10.0 mi Calm Calm - N/A   Clear
9:53 AM 78.1 °F - 69.1 °F 74% 30.15 in 10.0 mi Calm Calm - N/A   Clear
10:53 AM 82.0 °F 85.5 °F 69.1 °F 65% 30.15 in 10.0 mi Calm Calm - N/A   Clear
11:53 AM 86.0 °F 90.1 °F 69.1 °F 57% 30.14 in 10.0 mi Calm Calm - N/A   Clear
12:53 PM 89.1 °F 94.1 °F 70.0 °F 53% 30.13 in 10.0 mi Variable 4.6 mph - N/A   Clear
1:53 PM 91.9 °F 96.9 °F 69.1 °F 47% 30.10 in 10.0 mi North 8.1 mph - N/A   Partly Cloudy
2:53 PM 93.0 °F 96.4 °F 66.9 °F 42% 30.06 in 10.0 mi North 4.6 mph - N/A   Scattered Clouds
3:53 PM 96.1 °F 98.3 °F 64.0 °F 35% 30.03 in 10.0 mi NNE 10.4 mph - N/A   Clear
4:53 PM 95.0 °F 97.0 °F 64.0 °F 36% 30.01 in 10.0 mi ESE 5.8 mph - N/A   Partly Cloudy
5:53 PM 95.0 °F 96.0 °F 63.0 °F 34% 30.00 in 10.0 mi ENE 6.9 mph - N/A   Clear
6:53 PM 93.0 °F 94.2 °F 63.0 °F 37% 30.00 in 10.0 mi NNW 5.8 mph - N/A   Clear
7:53 PM 88.0 °F 89.6 °F 64.9 °F 46% 30.01 in 10.0 mi Calm Calm - N/A   Clear
8:53 PM 81.0 °F 83.3 °F 66.9 °F 62% 30.01 in 10.0 mi Calm Calm - N/A   Clear
9:53 PM 79.0 °F - 66.9 °F 66% 30.03 in 10.0 mi Calm Calm - N/A   Clear
10:53 PM 75.9 °F - 68.0 °F 76% 30.05 in 10.0 mi Calm Calm - N/A   Clear
11:53 PM 73.9 °F - 68.0 °F 82% 30.06 in 10.0 mi NE 3.5 mph - N/A   Clear